Location: Hopville
(44.8032°N, 123.1329°W)
Time: 17:16:18
(UTC+00:00)

H-2A R/B - Pass Details

Date: 24 January 2021
Orbit: 529 x 651 km, 98.3° (Epoch: 28 February)

Event Time Altitude Azimuth Distance (km) Brightness Sun altitude
Rises 14:13:18 0° 18° (NNE) 2,969 6.1 -15.3°
Reaches altitude 10° 14:15:34 10° 23° (NNE) 2,061 5.4 -14.9°
Maximum altitude 14:19:59 53° 101° (E) 801 3.5 -14.1°
Drops below altitude 10° 14:24:22 10° 178° (S) 2,048 5.4 -13.4°
Sets 14:26:37 0° 183° (S) 2,947 6.2 -13.0°
